Starlink 11373

operational
NORAD ID: 61582 Int'l Des: 2024-187 Owner: SPXS Country: US Constellation: starlink
LEOCIRCULAR

About Starlink 11373

Description loading...

Live Position

Loading 3D Globe...

Upcoming Passes

Altitude History

Altitude vs Time

uPlot chart will show altitude changes over time

Two-Line Element Set

1 61582U 24187J 25305.44371784 .00000968 00000-0 12850-4 0 9990
2 61582 53.1599 208.7653 0001116 121.0374 239.0753 15.69704991 60606
Epoch: Nov 1, 2025 • Age: 31 hours

Current Status

Altitude 360.2 km
Velocity 7.70 km/s
Sub-Earth Point 10.67°N, 90.69°W
Launch Date Oct 18, 2024
Age 1 years
Type internet

Technical Details

Classification Payload
Mass 960.00 kg
Dry Mass 910.00 kg
Total Mass 960.00 kg
Length 0.30 m
Diameter 4.10 m
Span 29.00 m
Shape Box + pan
Manufacturer SPXS
Bus Type Starlink V2MD
Phase Status In Orbit
Owner/State SPXS/US

Large Constellations

Loading constellations...